GW3951 Weather Reports


time (UTC)temp
C
wind
direction
speed
KPH
gust
KPH
rain 1hr
cm
rain 24hr
cm
rain mn
cm
humidity
%
barometer
mb
20260505184528 26 229 6.4 14.5 0.00 0.00 0.00 48 1017.7
20260505183017 25 110 6.4 19.3 0.00 0.00 0.00 49 1017.6
20260505181520 25 238 9.7 24.1 0.00 0.00 0.00 46 1017.4
20260505180024 26 118 3.2 19.3 0.00 0.00 0.00 49 1017.3
20260505174524 25 227 9.7 17.7 0.00 0.00 0.00 51 1017.4
20260505173008 25 135 9.7 19.3 0.00 0.00 0.00 50 1017.4
20260505171517 25 138 6.4 16.1 0.00 0.00 0.00 50 1017.5
20260505170020 24 227 6.4 16.1 0.00 0.00 0.00 52 1017.8
20260505164522 25 215 6.4 16.1 0.00 0.00 0.00 50 1018.0
20260505163029 25 238 3.2 9.7 0.00 0.00 0.00 54 1018.3
20260505161514 24 176 6.4 17.7 0.00 0.00 0.00 54 1018.4
20260505153024 23 152 8.0 17.7 0.00 0.00 0.00 58 1018.5
20260505151526 23 138 11.3 17.7 0.00 0.00 0.00 58 1018.3
20260505124514 17 146 0.0 3.2 0.00 0.00 0.00 83 1018.1
20260505123012 16 77 0.0 0.0 0.00 0.00 0.00 85 1018.3
20260505121506 14 352 0.0 0.0 0.00 0.00 0.00 88 1018.1
20260505120010 13 352 0.0 0.0 0.00 0.00 0.00 89 1018.2
20260505114512 11 103 0.0 0.0 0.00 0.00 0.00 92 1018.2
20260505113015 10 103 0.0 3.2 0.00 0.00 0.00 93 1018.0
20260505111513 9 103 0.0 3.2 0.00 0.00 0.00 94 1018.0
20260505101513 -17 0.0 0.0 0.00 0.00 0.00 1017.3
20260505100015 -17 0.0 0.0 0.00 0.00 0.00 1017.2
20260505094518 -17 0.0 0.0 0.00 0.00 0.00 1017.0
20260505093016 -17 0.0 0.0 0.00 0.00 0.00 1016.8
20260505091516 9 151 0.0 0.0 0.00 0.00 0.00 1016.8
20260505090018 10 151 0.0 0.0 0.00 0.00 0.00 94 1016.8
20260505084533 9 151 0.0 0.0 0.00 0.00 0.00 93 1016.7
20260505083019 10 151 0.0 0.0 0.00 0.00 0.00 93 1016.5
20260505081519 10 151 0.0 0.0 0.00 0.00 0.00 93 1016.4
20260505080019 10 151 0.0 0.0 0.00 0.00 0.00 93 1016.3
20260505074521 10 151 0.0 0.0 0.00 0.00 0.00 93 1016.2
20260505073016 10 151 0.0 0.0 0.00 0.00 0.00 93 1016.3
20260505071520 10 151 0.0 0.0 0.00 0.00 0.00 93 1016.3
20260505070028 10 151 0.0 0.0 0.00 0.00 0.00 92 1016.2
20260505064520 10 151 0.0 0.0 0.00 0.00 0.00 92 1016.4
20260505063028 10 151 0.0 0.0 0.00 0.00 0.00 92 1016.6
20260505061520 10 151 0.0 0.0 0.00 0.00 0.00 92 1016.8
20260505060004 11 151 0.0 0.0 0.00 0.00 0.00 92 1017.1
20260505054507 11 151 0.0 0.0 0.00 0.00 0.00 92 1017.3
20260505053018 11 151 0.0 0.0 0.00 0.00 0.00 92 1017.3
20260505051518 11 151 0.0 0.0 0.00 0.00 0.00 90 1017.5
20260505041515 12 151 0.0 0.0 0.00 0.00 0.00 87 1017.7
20260505040020 12 151 0.0 0.0 0.00 0.00 0.00 86 1017.7
20260505034525 12 151 0.0 0.0 0.00 0.00 0.00 85 1017.7
20260505033006 13 151 0.0 0.0 0.00 0.00 0.00 84 1017.7
20260505031515 13 151 0.0 0.0 0.00 0.00 0.00 82 1017.7
20260505030016 13 151 0.0 0.0 0.00 0.00 0.00 81 1017.7
20260505024520 14 151 0.0 0.0 0.00 0.00 0.00 79 1017.7
20260505023024 15 151 0.0 0.0 0.00 0.00 0.00 76 1017.5
20260505021508 15 151 0.0 0.0 0.00 0.00 0.00 73 1017.4
20260505020014 15 151 0.0 0.0 0.00 0.00 0.00 72 1017.5
20260505014519 16 151 0.0 0.0 0.00 0.00 0.00 69 1017.5
20260505013024 16 152 0.0 0.0 0.00 0.00 0.00 67 1017.4
20260505011504 16 188 0.0 0.0 0.00 0.00 0.00 65 1017.3
20260505010015 17 159 0.0 3.2 0.00 0.00 0.00 65 1017.0
20260505004528 17 210 0.0 3.2 0.00 0.00 0.00 61 1016.9
20260505003021 18 202 0.0 3.2 0.00 0.00 0.00 60 1016.8
20260505001524 18 175 1.6 6.4 0.00 0.00 0.00 57 1016.8
20260505000008 19 146 1.6 12.9 0.00 0.00 0.00 56 1016.8
20260504234529 20 220 1.6 12.9 0.00 0.00 0.00 54 1016.7
20260504233018 20 169 6.4 12.9 0.00 0.00 0.00 53 1016.5
20260504231523 21 183 4.8 20.9 0.00 0.00 0.00 54 1016.5
20260504230026 21 145 6.4 14.5 0.00 0.00 0.00 53 1016.4
20260504224513 22 180 11.3 20.9 0.00 0.00 0.00 52 1016.4
20260504223022 22 189 11.3 27.4 0.00 0.00 0.00 50 1016.4
20260504221522 22 214 8.0 24.1 0.00 0.00 0.00 49 1016.3
20260504220024 22 221 11.3 33.8 0.00 0.00 0.00 46 1016.4
20260504214528 22 140 14.5 30.6 0.00 0.00 0.00 46 1016.2
20260504213014 23 157 11.3 22.5 0.00 0.00 0.00 44 1016.3
20260504211520 23 168 14.5 25.7 0.00 0.00 0.00 43 1016.2
20260504210022 23 243 12.9 30.6 0.00 0.00 0.00 43 1016.2
20260504204527 24 213 9.7 20.9 0.00 0.00 0.00 42 1016.0
20260504203028 25 171 11.3 25.7 0.00 0.00 0.00 42 1016.3
20260504201517 25 159 6.4 29.0 0.00 0.00 0.00 41 1016.2
20260504200004 25 175 11.3 22.5 0.00 0.00 0.00 39 1016.4
20260504194506 25 139 4.8 24.1 0.00 0.00 0.00 37 1016.3
20260504193007 26 198 3.2 9.7 0.00 0.00 0.00 35 1016.5
20260504191518 25 349 8.0 14.5 0.00 0.00 0.00 35 1016.7
20260504190027 26 205 8.0 20.9 0.00 0.00 0.00 37 1016.8